Regional Weather Roundup
Issued by NWS Spokane, WA

Home | Current Version | Previous Version | Text Only | Print | Product List | Glossary On
Versions: 1 2 3 4 5 6 7 8 9 10 11 12 13 14 15 16 17 18 19 20 21 22 23 24 25 26 27 28 29 30 31 32 33 34 35 36 37 38 39 40 41 42 43 44 45 46 47 48 49 50
000
NZUS01 KOTX 240510
RWROTX
EASTERN WASHINGTON/NORTHERN IDAHO ROUNDUP
NATIONAL WEATHER SERVICE, SPOKANE WA
1000 PM PDT SAT JUL 23 2016

Note: "fair" indicated few or no clouds below 12,000 feet with no
significant weather and/or obstructions to visibility.

...NORTHEAST WASHINGTON AND NORTHERN IDAHO PANHANDLE...

CITY           SKY/WX    TMP DP  RH WIND       PRES   REMARKS
SPOKANE INTL   PTCLDY    71  43  36 CALM      30.12R
SPOKANE DOWNTO CLEAR     63  48  58 N5        30.11R
COEUR D ALENE  CLEAR     64  48  55 NE3       30.10S
DEER PARK      CLEAR     56  47  71 NE3       30.12R
SANDPOINT      CLEAR     55  52  88 CALM      30.13R
BONNERS FERRY    N/A     64  48  55 CALM      30.12R

...SOUTHEAST WASHINGTON AND SOUTHERN IDAHO PANHANDLE...

CITY           SKY/WX    TMP DP  RH WIND       PRES   REMARKS
WALLA WALLA    CLEAR     68  42  38 E8        30.07R
PULLMAN/MOSCOW CLEAR     56  44  64 CALM      30.15R
LEWISTON       CLEAR     72  43  35 S5        30.08R
LOWELL           N/A     63  53  70 N3        30.11R

...COLUMBIA BASIN...

CITY           SKY/WX    TMP DP  RH WIND       PRES   REMARKS
EPHRATA        CLEAR     70  45  40 SW5       30.07R
MOSES LAKE     CLEAR     75  44  33 S6        30.07R
TRI CITIES     CLEAR     70  49  47 CALM      30.04R
HERMISTON      CLEAR     67  43  41 SE6       30.04R
PENDLETON      CLEAR     66  35  31 NE6       30.08R

...EAST SLOPES CASCADES...

CITY           SKY/WX    TMP DP  RH WIND       PRES   REMARKS
THE DALLES     CLEAR     70  52  52 NW14      30.06R
YAKIMA         CLEAR     74  44  34 NW10      30.08R
ELLENSBURG     CLEAR     65  49  56 NW20G29   30.11R
STAMPEDE PASS  MOCLDY    49  46  90 SW7       30.25S
WENATCHEE      CLEAR     71  49  45 NW10      30.09R
OMAK           CLEAR     67  45  45 W8        30.06R

...SOUTHERN BRITISH COLUMBIA...

CITY           SKY/WX    TMP DP  RH WIND       PRES   REMARKS
PENTICTON      CLEAR     68  48  49 N6        30.10R
CRANBROOK      PTCLDY    64  46  52 W6        30.11R

...WESTERN MONTANA...

CITY           SKY/WX    TMP DP  RH WIND       PRES   REMARKS
MISSOULA       CLEAR     64  42  44 N8        30.14R

...NEIGHBORING CITIES...

CITY           SKY/WX    TMP DP  RH WIND       PRES   REMARKS
SEATTLE        CLEAR     64  56  75 N8        30.21S
CALGARY        MOCLDY    61  52  72 N8        30.05R



USA.gov is the U.S. government's official web portal to all federal, state and local government web resources and services.